Regional Weather Roundup
Issued by NWS Columbia, SC

Home | Current Version | Previous Version | Text Only | Print | Product List | Glossary On
Versions: 1 2 3 4 5 6 7 8 9 10 11 12 13 14 15 16 17 18 19 20 21 22 23 24 25 26 27 28 29 30 31 32 33 34 35 36 37 38 39 40 41 42 43 44 45 46 47 48 49 50
000
ASUS42 KCAE 250810
RWRCAE
REGIONAL WEATHER ROUNDUP
NATIONAL WEATHER SERVICE COLUMBIA SC
400 AM EDT FRI JUL 25 2014

NOTE: "FAIR" INDICATES FEW OR NO CLOUDS BELOW 12,000 FEET WITH NO
SIGNIFICANT WEATHER AND/OR OBSTRUCTIONS TO VISIBILITY.

NOT ALL STATIONS ARE QUALITY CONTROLLED BY THE NATIONAL
WEATHER SERVICE. USE DATA WITH CAUTION...ESPECIALLY
DEWPOINT OBSERVATIONS.

SCZ001>056-GAZ040-063>065-077-250900-
...UPSTATE SOUTH CAROLINA...

CITY           SKY/WX    TMP DP  RH WIND       PRES   REMARKS
ANDERSON       CLEAR     71  69  93 E3        29.97F
LIBERTY        FAIR      69  32  25 NE3       29.98F
SPARTANBURG    FAIR      73  70  88 NE5       29.98S
CLEMSON        MOCLDY    75  68  78 NE3       29.99F
GREENVILLE     CLEAR     73  65  75 NE7       30.00S
GREENWOOD      CLEAR     73  70  90 CALM      29.98S
GREER          MOCLDY    72  67  84 NE5       29.98F
ROCK HILL      CLEAR     69  67  93 VRB3      29.99F
CHESTER        FAIR      72  72 100 NE7       29.99S
LAURENS        FAIR      73 N/A N/A NE5       29.98S


...CENTRAL SOUTH CAROLINA...

CITY           SKY/WX    TMP DP  RH WIND       PRES   REMARKS
COLUMBIA APT   PTCLDY    78  71  79 CALM      29.95S
COLUMBIA OWENS CLOUDY    78  72  81 CALM      29.96S
DARLINGTON     PTCLDY    73  68  83 N5        29.97S
FLORENCE       PTCLDY    74  71  91 N6        29.95S
MCENTIRE ANGB  PTCLDY    75  73  94 N2        29.96S
ORANGEBURG     CLOUDY    77  72  84 W5        29.95F
SUMTER SHAW    CLOUDY    75  72  92 NE5       29.94S
NEWBERRY       FAIR      72  72 100 NE7       29.99S
AIKEN          FAIR      73  73 100 CALM      30.00S
BARNWELL       FAIR      75  72  88 W5        29.97S
MANNING        CLOUDY    79 N/A N/A N5        29.95R
CAMDEN         FAIR      73  68  83 NE7       29.97F
LANCASTER      LGT RAIN  68  68 100 E5        29.98F
WINNSBORO      CLOUDY    73  70  88 NE7       29.96F


...EASTERN AND COASTAL SOUTH CAROLINA...

CITY           SKY/WX    TMP DP  RH WIND       PRES   REMARKS
MYRTLE BEACH   MOCLDY    75  72  88 N3        29.95S
N MYRTLE BCH   CLOUDY    74  71  91 NE6       29.94F
CONWAY         FAIR      73  73 100 CALM      29.94F FOG
MARION         PTSUNNY   72  72 100 CALM      29.95S
HARTSVILLE     FAIR      72  72 100 N6        29.97S
FLORENCE       PTCLDY    74  71  91 N6        29.95S
DARLINGTON     PTCLDY    73  68  83 N5        29.97S
CHARLESTON APT PTCLDY    81  74  79 W9        29.94F
MOUNT PLEASANT FAIR      82  79  89 W7        29.94S
WALTERBORO     SUNNY     77  77 100 W5        29.96S
BEAUFORT       PTCLDY    79  72  79 NW6       29.96S


...EASTERN GEORGIA...

CITY           SKY/WX    TMP DP  RH WIND       PRES   REMARKS
AUGUSTA BUSH F MOCLDY    75  72  90 CALM      29.95F
AUGUSTA DANIEL MOCLDY    78  72  81 CALM      29.97F
THOMSON        PTCLDY    74  74 100 CALM      30.01S
WASHINGTON     FAIR      77  77 100 CALM      29.97S
CLAXTON        FAIR      79  77  94 CALM      29.97F
SYLVANIA       SUNNY     77  75  93 CALM      29.98F
STATESBORO     CLEAR     77  73  90 W3        29.97S
SAVANNAH       PTCLDY    78  71  79 SW8       29.97F


...SOUTHERN NORTH CAROLINA...

CITY           SKY/WX    TMP DP  RH WIND       PRES   REMARKS
CHARLOTTE      MOCLDY    70  66  87 NE7       30.00F
MONROE         CLOUDY    70  66  87 NE9       29.99S
WADESBORO      PTSUNNY   71  68  88 CALM      29.98S
ROCKINGHAM       N/A     72  70  94 N3        29.98R
RUTHERFORDTON  PTCLDY    70  67  88 E7        30.01F
ASHEVILLE      PTCLDY    65  63  93 N5        30.05F

$$


USA.gov is the U.S. government's official web portal to all federal, state and local government web resources and services.